Gastonia, NC

5:59 PM EST on January 21, 2020 (GMT -0500)
Gastonia Municipal

Weather History for KAKH - November, 2019

Change the Weather History Date:

Saturday, November 2, 2019

  Actual Average (KCLT) Record (KCLT)
Temperature  
Mean Temperature 50 °F -  
Max Temperature 63 °F 69 °F 85 °F (1961)
Min Temperature 37 °F 48 °F 27 °F (1954)
Degree Days  
Heating Degree Days 15    
Moisture  
Dew Point 35 °F    
Average Humidity 62    
Maximum Humidity 86    
Minimum Humidity 33    
Precipitation  
Precipitation 0.00 in - - ()
Sea Level Pressure  
Sea Level Pressure 30.18 in    
Wind  
Wind Speed 2 mph ()    
Max Wind Speed 6 mph    
Max Gust Speed -    
Visibility 10.0 miles    
Events      
Averages and records for this station are not official NWS values.
T = Trace of Precipitation, MM = Missing Value Source: Averaged Metar Reports

Daily Weather History Graph

Daily Weather History Graph

Search for Another Location

Airport or City:

Astronomy

Nov. 02, 2019 Rise Set
Actual Time 7:46 AM EDT 6:29 PM EDT
Civil Twilight 7:20 AM EDT 6:55 PM EDT
Nautical Twilight 6:50 AM EDT 7:25 PM EDT
Astronomical Twilight 6:20 AM EDT 7:55 PM EDT
Moon 1:17 PM EDT (11/2) 11:20 PM EDT (11/2)
Length of Visible Light 11h 35m
Length of Day
10h 42m
Waxing Crescent, 33% of the Moon is Illuminated
Nov 2
Waxing Crescent
Nov 4
First Quarter
Nov 12
Full
Nov 19
Last Quarter
Nov 26
New

Hourly Weather History & Observations

Time (EDT) Temp. Windchill Dew Point Humidity Pressure Visibility Wind Dir Wind Speed Gust Speed Precip Events Conditions
12:54 AM 42.1 °F - 36.0 °F 79% 30.25 in 10.0 mi Calm Calm - N/A   Clear
1:54 AM 42.1 °F - 37.0 °F 82% 30.24 in 10.0 mi Calm Calm - N/A   Clear
2:54 AM 39.9 °F - 35.1 °F 83% 30.22 in 10.0 mi Calm Calm - N/A   Clear
3:54 AM 39.0 °F - 35.1 °F 86% 30.22 in 10.0 mi Calm Calm - N/A   Clear
4:54 AM 39.0 °F 36.8 °F 35.1 °F 86% 30.21 in 10.0 mi North 3.5 mph - N/A   Clear
5:54 AM 39.0 °F 36.8 °F 35.1 °F 86% 30.22 in 10.0 mi North 3.5 mph - N/A   Clear
6:54 AM 37.9 °F 35.5 °F 34.0 °F 86% 30.22 in 10.0 mi North 3.5 mph - N/A   Clear
7:54 AM 39.9 °F 35.8 °F 34.0 °F 79% 30.22 in 10.0 mi North 5.8 mph - N/A   Clear
8:54 AM 44.1 °F 42.5 °F 37.0 °F 76% 30.22 in 10.0 mi North 3.5 mph - N/A   Clear
9:54 AM 48.9 °F - 39.9 °F 71% 30.22 in 10.0 mi Variable 4.6 mph - N/A   Clear
10:54 AM 53.1 °F - 39.0 °F 59% 30.21 in 10.0 mi Calm Calm - N/A   Clear
11:54 AM 55.9 °F - 37.0 °F 49% 30.19 in 10.0 mi Calm Calm - N/A   Clear
12:54 PM 57.9 °F - 37.0 °F 46% 30.16 in 10.0 mi Variable 3.5 mph - N/A   Clear
1:54 PM 60.1 °F - 36.0 °F 41% 30.13 in 10.0 mi Variable 3.5 mph - N/A   Clear
2:54 PM 62.1 °F - 37.0 °F 39% 30.10 in 10.0 mi Calm Calm - N/A   Clear
3:54 PM 62.1 °F - 34.0 °F 35% 30.09 in 10.0 mi Calm Calm - N/A   Clear
4:54 PM 63.0 °F - 35.1 °F 35% 30.09 in 10.0 mi Variable 4.6 mph - N/A   Clear
5:54 PM 59.0 °F - 37.0 °F 44% 30.10 in 10.0 mi Calm Calm - N/A   Clear
6:54 PM 52.0 °F - 42.1 °F 69% 30.11 in 10.0 mi Calm Calm - N/A   Clear
7:54 PM 48.9 °F - 41.0 °F 74% 30.13 in 10.0 mi Calm Calm - N/A   Clear
8:54 PM 54.0 °F - 25.0 °F 33% 30.15 in 10.0 mi North 5.8 mph - N/A   Clear
9:54 PM 52.0 °F - 24.1 °F 34% 30.16 in 10.0 mi North 5.8 mph - N/A   Clear
11:54 PM 46.0 °F 44.8 °F 27.0 °F 47% 30.18 in 10.0 mi North 3.5 mph - N/A   Clear